Regional Weather Roundup
Issued by NWS Green Bay, WI

Home | Current Version | Previous Version | Graphics & Text | Print | Product List | Glossary Off
Versions: 1 2 3 4 5 6 7 8 9 10 11 12 13 14 15 16 17 18 19 20 21 22 23 24 25 26 27 28 29 30 31 32 33 34 35 36 37 38 39 40 41 42 43 44 45 46 47 48 49 50

000
ASUS43 KGRB 211659
RWRGRB

NORTH-CENTRAL AND NORTHEAST WISCONSIN REGIONAL WEATHER ROUNDUP
NATIONAL WEATHER SERVICE GREEN BAY WI
1200 PM CDT TUE OCT 21 2014

WIZ005-009-010>012-018-019-211800-
NORTH CENTRAL WISCONSIN

CITY           SKY/WX    TMP DP  RH WIND       PRES   REMARKS
IRONWOOD       CLOUDY    43  36  75 SE8       30.24S
MANITOWISH WTR NOT AVBL
ARBOR VITAE    NOT AVBL
EAGLE RIVER    NOT AVBL
LAND O LAKES   NOT AVBL
RHINELANDER    CLOUDY    40  33  76 CALM      30.26R
PHILLIPS       NOT AVBL
ANTIGO         NOT AVBL
TOMAHAWK       NOT AVBL
MERRILL        NOT AVBL
$$

WIZ013-073-211800-
NORTHEAST WISCONSIN

CITY           SKY/WX    TMP DP  RH WIND       PRES   REMARKS
IRON MOUNTAIN  SUNNY     46  32  58 NW9       30.24F
MARINETTE      MOSUNNY   48  30  49 N8        30.23S
$$

WIZ017-030-035>037-045-211800-
CENTRAL WISCONSIN

CITY           SKY/WX    TMP DP  RH WIND       PRES   REMARKS
MEDFORD        NOT AVBL
WAUSAU         PTSUNNY   44  34  67 SE8       30.24S
MOSINEE        NOT AVBL
MARSHFIELD     PTSUNNY   46  35  65 VRB3      30.24R
WISC RAPIDS    CLOUDY    46  35  65 E6        30.27R
STEVENS POINT  NOT AVBL
WAUPACA        NOT AVBL
SHAWANO        NOT AVBL
CLINTONVILLE   NOT AVBL
$$

WIZ038-039-048-051-211800-
FOX VALLEY

CITY           SKY/WX    TMP DP  RH WIND       PRES   REMARKS
NWS GREEN BAY  PTSUNNY   48  35  60 NE13      30.25R
APPLETON       PTSUNNY   46  36  66 NE9       30.24S
OSHKOSH        CLOUDY    46  37  71 N12       30.24R
FOND DU LAC    CLOUDY    46  37  71 N10       30.24S
$$

WIZ022-050-052-211800-
EAST CENTRAL WISCONSIN

CITY           SKY/WX    TMP DP  RH WIND       PRES   REMARKS
STURGEON BAY   PTSUNNY   48  34  57 N16       30.24R
MANITOWOC      NOT AVBL
SHEBOYGAN      CLOUDY    48  36  63 N8G18     30.22R
$$

LMZ563-521-522-541>543-211800-
LAKESHORE

STATION/POSITION TIME  TEMP    WIND        PRES    VSBY  WAVE
                       AIR SEA DIR/SP/G                  HT/PER
                 (UTC) (F)     (DEG/KT/KT) (MB)    (MI)  (FT/S)
SHEBOYGAN LKSHOR 1600   46 49  360/ 22/ 23 1023.5R
KEWAUNEE LKSHORE 1600   47      30/ 13/ 17 1022.5R
NORTHPORT PIER   1600   45      10/ 14/ 17 1023.7S
N MID LAKE BUOY  1600   44 51   30/ 16/ 19 1023.5R         3/ 5
CHAMBERS ISLAND  1600   46     350/ 14/ 18 1024.0R
MENOMINEE LKSHOR 1600   46      30/ 11/ 13 1024.4R
$$



USA.gov is the U.S. government's official web portal to all federal, state and local government web resources and services.